SIA412 NVVV-AGGH

Flight info

Callsign SIA412
Flight time 1h 49m
Altitude 40000
Route 29N VLI DCT NIPER B598 IGBED DCT VAKRO VAKRO1D
Aircraft A359/H-SDE2E3GHIJ3J4J5LM1ORWXY/LB1D1

Departure

Time 2026-05-01 10:07
Airport Bauerfield International Airport (NVVV)

Arrival

Time 2026-05-01 11:57
Airport Honiara International Airport (AGGH)
Time Latitude Longitude Altitude Speed Heading
2026-05-01 09:53 -17.70045 168.31913 60 ft 0 kts 206°
2026-05-01 10:02 -17.70034 168.31918 65 ft 2 kts 181°
2026-05-01 10:02 -17.70021 168.31916 65 ft 2 kts 150°
2026-05-01 10:02 -17.70009 168.31908 62 ft 2 kts 119°
2026-05-01 10:03 -17.70009 168.31907 62 ft 0 kts 118°
2026-05-01 10:04 -17.70010 168.31908 62 ft 2 kts 117°
2026-05-01 10:04 -17.70004 168.31929 65 ft 5 kts 60°
2026-05-01 10:04 -17.69967 168.31993 63 ft 14 kts 70°
2026-05-01 10:05 -17.69975 168.32090 63 ft 13 kts 109°
2026-05-01 10:05 -17.70023 168.32176 57 ft 16 kts 120°
2026-05-01 10:05 -17.70094 168.32292 59 ft 21 kts 128°
2026-05-01 10:05 -17.70171 168.32428 64 ft 23 kts 120°
2026-05-01 10:06 -17.70254 168.32586 62 ft 26 kts 117°
2026-05-01 10:06 -17.70370 168.32720 67 ft 24 kts 129°
2026-05-01 10:06 -17.70367 168.32771 63 ft 3 kts 15°
2026-05-01 10:06 -17.70332 168.32760 64 ft 7 kts 327°
2026-05-01 10:07 -17.70297 168.32702 61 ft 23 kts 298°
2026-05-01 10:07 -17.70053 168.32221 62 ft 125 kts 298°
2026-05-01 10:07 -17.69500 168.31146 176 ft 201 kts 298°
2026-05-01 10:07 -17.68809 168.29811 1040 ft 220 kts 297°
2026-05-01 10:08 -17.67226 168.26678 1830 ft 265 kts 297°
2026-05-01 10:08 -17.66340 168.24940 2342 ft 275 kts 297°
2026-05-01 10:08 -17.65425 168.23149 2919 ft 281 kts 298°
2026-05-01 10:09 -17.64629 168.21265 3525 ft 284 kts 285°
2026-05-01 10:09 -17.64264 168.19230 4116 ft 285 kts 282°
2026-05-01 10:09 -17.63365 168.17393 4733 ft 286 kts 308°
2026-05-01 10:09 -17.62060 168.15816 5345 ft 286 kts 315°
2026-05-01 10:10 -17.60630 168.14366 5991 ft 286 kts 319°
2026-05-01 10:10 -17.59155 168.12959 6607 ft 287 kts 319°
2026-05-01 10:10 -17.56224 168.10130 7722 ft 290 kts 317°
2026-05-01 10:11 -17.54765 168.08666 8308 ft 291 kts 316°
2026-05-01 10:11 -17.53313 168.07179 8896 ft 292 kts 316°
2026-05-01 10:11 -17.51867 168.05680 9515 ft 293 kts 315°
2026-05-01 10:11 -17.50426 168.04177 10119 ft 293 kts 315°
2026-05-01 10:12 -17.48956 168.02639 10415 ft 305 kts 315°
2026-05-01 10:12 -17.47421 168.01036 10633 ft 318 kts 315°
2026-05-01 10:12 -17.44189 167.97666 11063 ft 342 kts 315°
2026-05-01 10:13 -17.42480 167.95887 11251 ft 352 kts 315°
2026-05-01 10:13 -17.40716 167.94053 11478 ft 361 kts 314°
2026-05-01 10:13 -17.38920 167.92188 11823 ft 365 kts 314°
2026-05-01 10:14 -17.35296 167.88426 12589 ft 370 kts 315°
2026-05-01 10:14 -17.33460 167.86522 12941 ft 373 kts 315°
2026-05-01 10:14 -17.31618 167.84611 13373 ft 374 kts 314°
2026-05-01 10:14 -17.29796 167.82721 13819 ft 373 kts 315°
2026-05-01 10:15 -17.27949 167.80805 14135 ft 375 kts 315°
2026-05-01 10:15 -17.26081 167.78868 14403 ft 379 kts 314°
2026-05-01 10:15 -17.24210 167.76929 14834 ft 378 kts 314°
2026-05-01 10:15 -17.22339 167.74990 15185 ft 379 kts 314°
2026-05-01 10:16 -17.20454 167.73038 15506 ft 382 kts 314°
2026-05-01 10:16 -17.18556 167.71072 15797 ft 385 kts 314°
2026-05-01 10:16 -17.14744 167.67125 16550 ft 387 kts 314°
2026-05-01 10:17 -17.12824 167.65138 16874 ft 389 kts 314°
2026-05-01 10:17 -17.08960 167.61141 17567 ft 392 kts 314°
2026-05-01 10:17 -17.07018 167.59133 17920 ft 393 kts 314°
2026-05-01 10:18 -17.03131 167.55118 18550 ft 397 kts 313°
2026-05-01 10:18 -17.01165 167.53087 18829 ft 398 kts 313°
2026-05-01 10:18 -16.99190 167.51047 19122 ft 399 kts 314°
2026-05-01 10:19 -16.97208 167.49000 19395 ft 401 kts 314°
2026-05-01 10:19 -16.95215 167.46944 19661 ft 403 kts 314°
2026-05-01 10:19 -16.93219 167.44885 19932 ft 405 kts 314°
2026-05-01 10:20 -16.89197 167.40739 20491 ft 407 kts 313°
2026-05-01 10:20 -16.87176 167.38656 20764 ft 409 kts 313°
2026-05-01 10:20 -16.85148 167.36567 21030 ft 410 kts 313°
2026-05-01 10:20 -16.83132 167.34491 21280 ft 412 kts 313°
2026-05-01 10:21 -16.81088 167.32386 21545 ft 413 kts 313°
2026-05-01 10:21 -16.76974 167.28153 22062 ft 416 kts 313°
2026-05-01 10:21 -16.74907 167.26026 22308 ft 418 kts 313°
2026-05-01 10:22 -16.70754 167.21757 22827 ft 420 kts 313°
2026-05-01 10:22 -16.66572 167.17461 23326 ft 423 kts 313°
2026-05-01 10:23 -16.64475 167.15307 23539 ft 424 kts 313°
2026-05-01 10:23 -16.60254 167.10973 23829 ft 430 kts 313°
2026-05-01 10:23 -16.58122 167.08786 24056 ft 430 kts 313°
2026-05-01 10:24 -16.53847 167.04405 24506 ft 431 kts 313°
2026-05-01 10:24 -16.49562 167.00014 24905 ft 433 kts 313°
2026-05-01 10:25 -16.45256 166.95604 25333 ft 434 kts 313°
2026-05-01 10:25 -16.40961 166.91209 25740 ft 436 kts 313°
2026-05-01 10:26 -16.38797 166.88995 25964 ft 437 kts 313°
2026-05-01 10:26 -16.36625 166.86775 26176 ft 438 kts 313°
2026-05-01 10:26 -16.32273 166.82327 26665 ft 439 kts 313°
2026-05-01 10:27 -16.27902 166.77862 27059 ft 441 kts 313°
2026-05-01 10:27 -16.23494 166.73361 27417 ft 445 kts 313°
2026-05-01 10:28 -16.21278 166.71101 27659 ft 446 kts 313°
2026-05-01 10:28 -16.16861 166.66598 28093 ft 448 kts 313°
2026-05-01 10:28 -16.14631 166.64326 28324 ft 449 kts 313°
2026-05-01 10:29 -16.10151 166.59762 28762 ft 451 kts 313°
2026-05-01 10:29 -16.07906 166.57476 28977 ft 452 kts 313°
2026-05-01 10:30 -16.03392 166.52883 29420 ft 454 kts 313°
2026-05-01 10:30 -15.98858 166.48272 29868 ft 457 kts 313°
2026-05-01 10:31 -15.94332 166.43673 30244 ft 459 kts 313°
2026-05-01 10:31 -15.89748 166.39017 30552 ft 463 kts 313°
2026-05-01 10:32 -15.85108 166.34308 30903 ft 466 kts 313°
2026-05-01 10:32 -15.82784 166.31952 31108 ft 467 kts 313°
2026-05-01 10:32 -15.78147 166.27251 31482 ft 469 kts 313°
2026-05-01 10:33 -15.73470 166.22512 31828 ft 471 kts 313°
2026-05-01 10:33 -15.68761 166.17745 32167 ft 473 kts 314°
2026-05-01 10:34 -15.66397 166.15353 32316 ft 474 kts 314°
2026-05-01 10:34 -15.64030 166.12958 32492 ft 475 kts 314°
2026-05-01 10:34 -15.61657 166.10559 32643 ft 476 kts 314°
2026-05-01 10:35 -15.56919 166.05771 33137 ft 474 kts 314°
2026-05-01 10:35 -15.54553 166.03381 33361 ft 473 kts 314°
2026-05-01 10:35 -15.52192 166.00996 33519 ft 475 kts 314°
2026-05-01 10:35 -15.49822 165.98603 33688 ft 476 kts 314°
2026-05-01 10:36 -15.45086 165.93825 34196 ft 474 kts 314°
2026-05-01 10:36 -15.42756 165.91475 34434 ft 473 kts 314°
2026-05-01 10:36 -15.40397 165.89097 34663 ft 472 kts 314°
2026-05-01 10:37 -15.38048 165.86729 34917 ft 471 kts 314°
2026-05-01 10:37 -15.33347 165.81994 35431 ft 470 kts 314°
2026-05-01 10:37 -15.31010 165.79640 35683 ft 469 kts 314°
2026-05-01 10:38 -15.28672 165.77286 35947 ft 468 kts 315°
2026-05-01 10:38 -15.26339 165.74938 36210 ft 468 kts 315°
2026-05-01 10:38 -15.24005 165.72591 36472 ft 467 kts 315°
2026-05-01 10:38 -15.21674 165.70247 36729 ft 466 kts 315°
2026-05-01 10:39 -15.19351 165.67912 36981 ft 466 kts 315°
2026-05-01 10:39 -15.17810 165.66364 37168 ft 465 kts 315°
2026-05-01 10:39 -15.13127 165.61659 37326 ft 472 kts 315°
2026-05-01 10:40 -15.10769 165.59291 37601 ft 470 kts 315°
2026-05-01 10:40 -15.08426 165.56939 37899 ft 469 kts 315°
2026-05-01 10:40 -15.06086 165.54592 38188 ft 468 kts 315°
2026-05-01 10:40 -15.03748 165.52247 38446 ft 466 kts 315°
2026-05-01 10:41 -15.01422 165.49915 38695 ft 466 kts 315°
2026-05-01 10:41 -14.99126 165.47613 38910 ft 465 kts 315°
2026-05-01 10:41 -14.94484 165.42962 39290 ft 464 kts 315°
2026-05-01 10:42 -14.92163 165.40637 39487 ft 463 kts 315°
2026-05-01 10:42 -14.89846 165.38317 39676 ft 463 kts 315°
2026-05-01 10:42 -14.87529 165.35999 39873 ft 462 kts 315°
2026-05-01 10:43 -14.82902 165.31369 39932 ft 462 kts 315°
2026-05-01 10:43 -14.78286 165.26753 39932 ft 462 kts 316°
2026-05-01 10:44 -14.73664 165.22136 39936 ft 462 kts 316°
2026-05-01 10:44 -14.69068 165.17547 39934 ft 462 kts 316°
2026-05-01 10:45 -14.64433 165.12923 39934 ft 462 kts 316°
2026-05-01 10:45 -14.59795 165.08298 39932 ft 462 kts 316°
2026-05-01 10:46 -14.55198 165.03715 39938 ft 462 kts 315°
2026-05-01 10:46 -14.50569 164.99104 39935 ft 462 kts 315°
2026-05-01 10:47 -14.45938 164.94495 39932 ft 462 kts 315°
2026-05-01 10:47 -14.41310 164.89890 39928 ft 462 kts 315°
2026-05-01 10:48 -14.36668 164.85276 39930 ft 463 kts 315°
2026-05-01 10:48 -14.32026 164.80664 39931 ft 463 kts 315°
2026-05-01 10:49 -14.27376 164.76131 39934 ft 463 kts 317°
2026-05-01 10:49 -14.22626 164.71651 39933 ft 463 kts 317°
2026-05-01 10:50 -14.17875 164.67155 39939 ft 464 kts 317°
2026-05-01 10:50 -14.13112 164.62641 39930 ft 465 kts 317°
2026-05-01 10:51 -14.08436 164.58024 39930 ft 465 kts 315°
2026-05-01 10:51 -14.03835 164.53346 39929 ft 465 kts 315°
2026-05-01 10:52 -13.99251 164.48707 39929 ft 465 kts 315°
2026-05-01 10:52 -13.94620 164.44056 39930 ft 465 kts 315°
2026-05-01 10:53 -13.89985 164.39415 39930 ft 465 kts 315°
2026-05-01 10:53 -13.85350 164.34778 39930 ft 465 kts 315°
2026-05-01 10:54 -13.80709 164.30136 39929 ft 465 kts 315°
2026-05-01 10:54 -13.76051 164.25480 39930 ft 466 kts 315°
2026-05-01 10:55 -13.71439 164.20871 39932 ft 466 kts 315°
2026-05-01 10:55 -13.66786 164.16224 39930 ft 467 kts 315°
2026-05-01 10:56 -13.62115 164.11563 39931 ft 468 kts 315°
2026-05-01 10:56 -13.57438 164.06897 39931 ft 468 kts 315°
2026-05-01 10:57 -13.52764 164.02237 39927 ft 468 kts 315°
2026-05-01 10:57 -13.48090 163.97581 39927 ft 468 kts 315°
2026-05-01 10:58 -13.43410 163.92921 39930 ft 468 kts 315°
2026-05-01 10:58 -13.38726 163.88260 39927 ft 468 kts 315°
2026-05-01 10:59 -13.34073 163.83632 39928 ft 468 kts 315°
2026-05-01 10:59 -13.29381 163.78968 39930 ft 470 kts 316°
2026-05-01 11:00 -13.24670 163.74287 39927 ft 471 kts 316°
2026-05-01 11:00 -13.19998 163.69648 39929 ft 470 kts 316°
2026-05-01 11:01 -13.15283 163.64969 39927 ft 470 kts 316°
2026-05-01 11:01 -13.10570 163.60295 39929 ft 470 kts 316°
2026-05-01 11:02 -13.05902 163.55669 39925 ft 470 kts 316°
2026-05-01 11:02 -13.01202 163.51012 39924 ft 470 kts 316°
2026-05-01 11:03 -12.96502 163.46359 39924 ft 470 kts 316°
2026-05-01 11:03 -12.91802 163.41707 39926 ft 470 kts 316°
2026-05-01 11:04 -12.87091 163.37047 39924 ft 470 kts 316°
2026-05-01 11:04 -12.82383 163.32394 39925 ft 470 kts 316°
2026-05-01 11:05 -12.77672 163.27740 39921 ft 470 kts 316°
2026-05-01 11:05 -12.72971 163.23098 39920 ft 469 kts 316°
2026-05-01 11:06 -12.68265 163.18454 39921 ft 469 kts 316°
2026-05-01 11:06 -12.63598 163.13851 39920 ft 469 kts 316°
2026-05-01 11:07 -12.56536 163.06890 39933 ft 470 kts 316°
2026-05-01 11:07 -12.51817 163.02241 39919 ft 469 kts 316°
2026-05-01 11:08 -12.47105 162.97602 39915 ft 470 kts 316°
2026-05-01 11:09 -12.40065 162.90676 39921 ft 470 kts 316°
2026-05-01 11:09 -12.35337 162.86028 39931 ft 471 kts 316°
2026-05-01 11:10 -12.28250 162.79064 39913 ft 471 kts 316°
2026-05-01 11:10 -12.23524 162.74424 39915 ft 471 kts 316°
2026-05-01 11:11 -12.18804 162.69792 39926 ft 471 kts 316°
2026-05-01 11:11 -12.14064 162.65142 39905 ft 471 kts 317°
2026-05-01 11:12 -12.09358 162.60529 39910 ft 471 kts 316°
2026-05-01 11:12 -12.04620 162.55887 39927 ft 471 kts 317°
2026-05-01 11:13 -11.99884 162.51248 39927 ft 471 kts 316°
2026-05-01 11:13 -11.95148 162.46612 39925 ft 471 kts 317°
2026-05-01 11:14 -11.90415 162.41981 39922 ft 471 kts 317°
2026-05-01 11:14 -11.85713 162.37384 39905 ft 471 kts 316°
2026-05-01 11:15 -11.80978 162.32756 39920 ft 471 kts 316°
2026-05-01 11:15 -11.76234 162.28121 39915 ft 473 kts 316°
2026-05-01 11:16 -11.71483 162.23483 39901 ft 472 kts 316°
2026-05-01 11:16 -11.66731 162.18845 39919 ft 473 kts 317°
2026-05-01 11:17 -11.62012 162.14242 39919 ft 471 kts 317°
2026-05-01 11:17 -11.57268 162.09617 39904 ft 472 kts 317°
2026-05-01 11:18 -11.52514 162.04985 39913 ft 472 kts 317°
2026-05-01 11:18 -11.47763 162.00357 39911 ft 472 kts 316°
2026-05-01 11:19 -11.43004 161.95723 39917 ft 473 kts 317°
2026-05-01 11:19 -11.38266 161.91114 39920 ft 473 kts 317°
2026-05-01 11:20 -11.33486 161.86465 39914 ft 474 kts 317°
2026-05-01 11:20 -11.28719 161.81831 39913 ft 473 kts 317°
2026-05-01 11:21 -11.23948 161.77196 39896 ft 474 kts 317°
2026-05-01 11:21 -11.19206 161.72591 39914 ft 473 kts 317°
2026-05-01 11:22 -11.14438 161.67962 39913 ft 474 kts 317°
2026-05-01 11:22 -11.09664 161.63331 39896 ft 473 kts 317°
2026-05-01 11:23 -11.04875 161.58687 39910 ft 478 kts 317°
2026-05-01 11:23 -11.00052 161.54012 39896 ft 478 kts 317°
2026-05-01 11:24 -10.95236 161.49345 39895 ft 478 kts 317°
2026-05-01 11:24 -10.90426 161.44688 39706 ft 477 kts 317°
2026-05-01 11:25 -10.88021 161.42359 39469 ft 477 kts 317°
2026-05-01 11:25 -10.83229 161.37723 39014 ft 480 kts 317°
2026-05-01 11:25 -10.80808 161.35381 38783 ft 481 kts 317°
2026-05-01 11:26 -10.78385 161.33037 38560 ft 481 kts 317°
2026-05-01 11:26 -10.73534 161.28347 37810 ft 479 kts 317°
2026-05-01 11:26 -10.71127 161.26021 37158 ft 477 kts 317°
2026-05-01 11:27 -10.68718 161.23694 36474 ft 477 kts 317°
2026-05-01 11:27 -10.66231 161.21480 35777 ft 476 kts 324°
2026-05-01 11:27 -10.63375 161.19766 34891 ft 479 kts 337°
2026-05-01 11:27 -10.60275 161.18625 34043 ft 483 kts 343°
2026-05-01 11:28 -10.57049 161.17615 33117 ft 486 kts 343°
2026-05-01 11:28 -10.53800 161.16620 32225 ft 489 kts 343°
2026-05-01 11:28 -10.50537 161.15622 31346 ft 491 kts 343°
2026-05-01 11:29 -10.43944 161.13603 29382 ft 499 kts 343°
2026-05-01 11:29 -10.40623 161.12586 28499 ft 498 kts 343°
2026-05-01 11:29 -10.34102 161.10588 27160 ft 488 kts 343°
2026-05-01 11:30 -10.30861 161.09595 26476 ft 485 kts 343°
2026-05-01 11:30 -10.27640 161.08609 25796 ft 481 kts 343°
2026-05-01 11:30 -10.24445 161.07630 25117 ft 478 kts 343°
2026-05-01 11:30 -10.21268 161.06658 24445 ft 476 kts 343°
2026-05-01 11:31 -10.18107 161.05690 23769 ft 474 kts 343°
2026-05-01 11:31 -10.16021 161.05052 23286 ft 472 kts 343°
2026-05-01 11:31 -10.12882 161.04091 22545 ft 469 kts 343°
2026-05-01 11:31 -10.08774 161.02834 21658 ft 463 kts 343°
2026-05-01 11:32 -10.05706 161.01895 20992 ft 458 kts 343°
2026-05-01 11:32 -10.02668 161.00966 20324 ft 454 kts 343°
2026-05-01 11:32 -9.99650 161.00044 19658 ft 451 kts 343°
2026-05-01 11:32 -9.97664 160.99437 19191 ft 449 kts 343°
2026-05-01 11:33 -9.93680 160.98219 18279 ft 446 kts 343°
2026-05-01 11:33 -9.91720 160.97621 17774 ft 444 kts 343°
2026-05-01 11:33 -9.88776 160.96704 17051 ft 440 kts 341°
2026-05-01 11:33 -9.86040 160.95376 16306 ft 436 kts 326°
2026-05-01 11:34 -9.83830 160.93311 15603 ft 431 kts 308°
2026-05-01 11:34 -9.81573 160.90031 14697 ft 425 kts 303°
2026-05-01 11:34 -9.79958 160.87538 14017 ft 421 kts 303°
2026-05-01 11:34 -9.78347 160.85075 13267 ft 417 kts 303°
2026-05-01 11:35 -9.77284 160.83462 12812 ft 414 kts 304°
2026-05-01 11:35 -9.75690 160.81056 12129 ft 408 kts 304°
2026-05-01 11:35 -9.73586 160.77891 11226 ft 402 kts 304°
2026-05-01 11:35 -9.72553 160.76341 10867 ft 398 kts 304°
2026-05-01 11:36 -9.70564 160.73360 10696 ft 373 kts 304°
2026-05-01 11:36 -9.69600 160.71916 10599 ft 361 kts 304°
2026-05-01 11:36 -9.68224 160.69856 10474 ft 344 kts 304°
2026-05-01 11:36 -9.66928 160.67917 10357 ft 330 kts 304°
2026-05-01 11:37 -9.65669 160.66033 10234 ft 316 kts 304°
2026-05-01 11:37 -9.64464 160.64230 10116 ft 303 kts 304°
2026-05-01 11:37 -9.63298 160.62487 9891 ft 296 kts 304°
2026-05-01 11:37 -9.62122 160.60729 9585 ft 305 kts 304°
2026-05-01 11:38 -9.60929 160.58945 9303 ft 306 kts 304°
2026-05-01 11:38 -9.59734 160.57162 8879 ft 305 kts 304°
2026-05-01 11:38 -9.58576 160.55431 8606 ft 288 kts 304°
2026-05-01 11:38 -9.57485 160.53800 8324 ft 271 kts 304°
2026-05-01 11:39 -9.56472 160.52287 8075 ft 256 kts 304°
2026-05-01 11:39 -9.55488 160.50816 7706 ft 247 kts 304°
2026-05-01 11:39 -9.54543 160.49405 7409 ft 238 kts 304°
2026-05-01 11:39 -9.53630 160.48042 7096 ft 230 kts 304°
2026-05-01 11:40 -9.52742 160.46715 6838 ft 226 kts 304°
2026-05-01 11:40 -9.51838 160.45365 6695 ft 245 kts 304°
2026-05-01 11:40 -9.50819 160.43845 6684 ft 266 kts 304°
2026-05-01 11:40 -9.49794 160.42315 6243 ft 269 kts 304°
2026-05-01 11:41 -9.48722 160.40715 5731 ft 282 kts 304°
2026-05-01 11:41 -9.47598 160.39038 5529 ft 291 kts 304°
2026-05-01 11:41 -9.46466 160.37349 5233 ft 289 kts 304°
2026-05-01 11:41 -9.45331 160.35657 4774 ft 291 kts 304°
2026-05-01 11:42 -9.44201 160.33972 4620 ft 289 kts 304°
2026-05-01 11:42 -9.43077 160.32295 4486 ft 284 kts 304°
2026-05-01 11:42 -9.41991 160.30675 4212 ft 276 kts 304°
2026-05-01 11:42 -9.40895 160.29042 3657 ft 284 kts 304°
2026-05-01 11:43 -9.39804 160.27414 3438 ft 273 kts 304°
2026-05-01 11:43 -9.38759 160.25858 3313 ft 261 kts 304°
2026-05-01 11:43 -9.37756 160.24362 3196 ft 261 kts 304°
2026-05-01 11:44 -9.35705 160.21342 2999 ft 260 kts 308°
2026-05-01 11:44 -9.34244 160.20329 2989 ft 256 kts 346°
2026-05-01 11:44 -9.32520 160.20357 2988 ft 248 kts 23°
2026-05-01 11:44 -9.31154 160.21344 2994 ft 241 kts 50°
2026-05-01 11:45 -9.29946 160.22536 2988 ft 244 kts 43°
2026-05-01 11:45 -9.28620 160.23611 2988 ft 244 kts 46°
2026-05-01 11:45 -9.27610 160.24926 2978 ft 227 kts 66°
2026-05-01 11:45 -9.27274 160.26387 2989 ft 213 kts 94°
2026-05-01 11:46 -9.27559 160.27842 2991 ft 211 kts 111°
2026-05-01 11:46 -9.28275 160.29135 2987 ft 212 kts 129°
2026-05-01 11:46 -9.29428 160.30055 2985 ft 213 kts 153°
2026-05-01 11:46 -9.30878 160.30361 2989 ft 217 kts 180°
2026-05-01 11:47 -9.32327 160.29917 2982 ft 223 kts 209°
2026-05-01 11:47 -9.33395 160.28771 2993 ft 229 kts 238°
2026-05-01 11:47 -9.34067 160.27299 2989 ft 231 kts 245°
2026-05-01 11:47 -9.34660 160.25807 2989 ft 232 kts 245°
2026-05-01 11:48 -9.35266 160.24295 2987 ft 232 kts 245°
2026-05-01 11:48 -9.35880 160.22790 2989 ft 231 kts 244°
2026-05-01 11:48 -9.36358 160.21231 2985 ft 235 kts 260°
2026-05-01 11:48 -9.36132 160.19606 2994 ft 236 kts 295°
2026-05-01 11:49 -9.35085 160.18385 2996 ft 230 kts 329°
2026-05-01 11:49 -9.33582 160.17922 2990 ft 227 kts
2026-05-01 11:49 -9.32084 160.18307 2996 ft 223 kts 32°
2026-05-01 11:49 -9.31006 160.19385 2989 ft 219 kts 61°
2026-05-01 11:50 -9.30339 160.20796 2997 ft 233 kts 70°
2026-05-01 11:50 -9.29619 160.22291 2995 ft 239 kts 63°
2026-05-01 11:50 -9.28775 160.23746 2986 ft 240 kts 62°
2026-05-01 11:50 -9.27961 160.25218 2999 ft 239 kts 65°
2026-05-01 11:51 -9.27325 160.26761 2970 ft 237 kts 80°
2026-05-01 11:51 -9.27411 160.28393 2990 ft 233 kts 110°
2026-05-01 11:51 -9.28298 160.29737 2989 ft 232 kts 138°
2026-05-01 11:51 -9.29729 160.30483 2987 ft 236 kts 165°
2026-05-01 11:52 -9.31367 160.30439 2987 ft 241 kts 193°
2026-05-01 11:52 -9.32794 160.29585 2990 ft 247 kts 223°
2026-05-01 11:52 -9.33722 160.28107 2994 ft 252 kts 243°
2026-05-01 11:52 -9.34402 160.26473 2982 ft 253 kts 245°
2026-05-01 11:53 -9.35061 160.24822 2988 ft 253 kts 245°
2026-05-01 11:53 -9.35728 160.23212 2932 ft 242 kts 244°
2026-05-01 11:53 -9.36358 160.21672 2795 ft 232 kts 245°
2026-05-01 11:53 -9.36943 160.20190 2678 ft 222 kts 245°
2026-05-01 11:54 -9.37505 160.18774 2537 ft 210 kts 246°
2026-05-01 11:54 -9.38029 160.17468 2381 ft 195 kts 246°
2026-05-01 11:54 -9.38525 160.16232 2084 ft 185 kts 246°
2026-05-01 11:54 -9.38992 160.15058 1822 ft 174 kts 247°
2026-05-01 11:55 -9.39427 160.13965 1604 ft 162 kts 246°
2026-05-01 11:55 -9.39837 160.12935 1390 ft 153 kts 246°
2026-05-01 11:55 -9.40222 160.11970 1194 ft 143 kts 246°
2026-05-01 11:55 -9.40590 160.11048 966 ft 142 kts 246°
2026-05-01 11:56 -9.40953 160.10136 822 ft 139 kts 246°
2026-05-01 11:56 -9.41309 160.09241 650 ft 139 kts 247°
2026-05-01 11:56 -9.41669 160.08339 460 ft 138 kts 246°
2026-05-01 11:56 -9.42027 160.07441 297 ft 138 kts 247°
2026-05-01 11:57 -9.42378 160.06541 105 ft 137 kts 246°
2026-05-01 11:57 -9.42720 160.05646 35 ft 130 kts 247°
2026-05-01 11:57 -9.42932 160.05140 38 ft 18 kts 249°
2026-05-01 11:57 -9.42962 160.05063 38 ft 13 kts 249°
2026-05-01 11:58 -9.42967 160.04995 38 ft 6 kts 298°
2026-05-01 11:58 -9.42946 160.04975 39 ft 4 kts 328°
2026-05-01 11:58 -9.42880 160.04948 40 ft 7 kts 339°
2026-05-01 11:59 -9.42876 160.04947 40 ft 0 kts 339°